Yaogan 47

operational
NORAD ID: 66988 Int'l Des: 2025-289 Owner: CASC Country: CN Constellation: yaogan
LEOCIRCULARRETROGRADESSO

Über Yaogan 47

Beschreibung wird geladen...

Live-Position

3D-Globus wird geladen...

Nächste Überflüge

Höhenverlauf

Altitude vs Time

uPlot chart will show altitude changes over time

Zweizeiliger Elementsatz

1 66988U 25289A 25345.62394963 .00005809 00000-0 24920-3 0 9996
2 66988 97.5268 50.7421 0000858 73.6850 286.4480 15.23120362 372
Epoch: 11. Dez. 2025 • Age: 58 hours

Aktueller Status

Höhe 500.0 km
Geschwindigkeit 7.62 km/s
Subsatellitenpunkt 31.81°N, 56.26°W
Startdatum 9. Dez. 2025
Alter 5 days
Typ military

Technische Details

Klassifizierung Payload
Masse 1500.00 kg
Trockenmasse 1500.00 kg
Gesamtmasse 1500.00 kg
Länge 3.00 m
Durchmesser 2.00 m
Spannweite 12.00 m
Form Box + 2 Pan
Hersteller UNKCN
Bus-Typ YG47
Phasenstatus In Orbit
Besitzer/Staat CASC/CN

Große Konstellationen

Loading constellations...